Air Resources Laboratory banner image
Air Resources Laboratory web site National Oceanic and Atmospheric Administration (NOAA)

la roundup


Office: LIX

ASUS44 KLIX 211607
RWRLA
LOUISIANA WEATHER ROUNDUP
NATIONAL WEATHER SERVICE NEW ORLEANS LA
1000 AM CST WED FEB 21 2018

NOTE: "FAIR" INDICATES FEW OR NO CLOUDS BELOW 12,000 FEET WITH NO
      SIGNIFICANT WEATHER AND/OR OBSTRUCTIONS TO VISIBILITY.
      SKY/WX - SKY CONDITION AND SIGNIFICANT WEATHER.
      TMP - AIR TEMPERATURE.    DP   - DEWPOINT TEMPERATURE.
      RH  - RELATIVE HUMIDITY.  PRES - PRESSURE.
      HX  - HEAT INDEX.         WCI  - WIND CHILL INDEX.

*  THESE STATIONS ARE NOT NWS OR FAA STATIONS AND ARE NOT UNDER
   NWS QUALITY CONTROL.

LAZ040-048-061>063-065-066-069-211700-
SOUTHEAST LOUISIANA

CITY           SKY/WX    TMP DP  RH WIND       PRES   REMARKS
N.O. INTL ARPT PTSUNNY   80  73  79 SE17G24   30.24R
N.O. LAKEFRONT FAIR      79  71  76 SE18G25   30.25R
N.O. DOWNTOWN* PTSUNNY   78  71  79 S12       30.25S
RESERVE*       CLOUDY    80  71  72 S15       30.24S
SLIDELL        CLOUDY    78  70  76 SE15G23   30.25S
BATON ROUGE    PTSUNNY   79  68  69 SE17G28   30.20F
BOOTHVILLE     NOT AVBL
BELLE CHASSE   PTSUNNY   79  74  84 SE13      30.24
BOGALUSA*      CLOUDY    79  69  72 S10       30.27S
GALLIANO*      CLOUDY    79  70  74 SE14G21   30.24R
NEW ROADS*     CLOUDY    78  69  73 SE13G25   30.20S
GONZALES*      NOT AVBL
HAMMOND*       CLOUDY    77  70  78 S14G21    30.25S
HOUMA*         PTSUNNY   81  72  74 SE16G29   30.23R
PORT FOURCHON* SUNNY     77  73  88 SE13      30.24R HAZE

$$

LAZ041-044-053-054-211700-
SOUTHWEST LOUISIANA

CITY           SKY/WX    TMP DP  RH WIND       PRES   REMARKS
LAKE CHARLES   CLOUDY    75  72  90 S22G31    30.13R
LAFAYETTE      CLOUDY    78  70  76 S15G29    30.18S
PATTERSON      PTSUNNY   80  71  74 SE15G24   30.21S
SALT POINT       N/A     76  70  82 SE13      30.18S
NEW IBERIA     LGT RAIN  78  69  73 SE26G33   30.19S
CHENAULT AIRPK CLOUDY    73  72  94 SE21G26   30.13R

$$

LAZ027-028-211700-
CENTRAL LOUISIANA

CITY           SKY/WX    TMP DP  RH WIND       PRES   REMARKS
FORT POLK      HVY RAIN  71  70  96 NW9       30.11R VSB 3/4
ALEXANDRIA INT LGT RAIN  74  69  85 SE17      30.12F
ALEXANDRIA     CLOUDY    75  69  81 SE8       30.16F

$$

LAZ001-002-211700-
NORTHWEST LOUISIANA

CITY           SKY/WX    TMP DP  RH WIND       PRES   REMARKS
SHREVEPORT     LGT RAIN  58  57  97 NE22G29   30.20S FOG
BARKSDALE AFB  HVY RAIN  57  57 100 NE10G18   30.23R FOG
DTN SHREVEPORT HVY RAIN  58  56  93 N14G28    30.23R FOG

$$

LAZ014-016-211700-
NORTHEAST LOUISIANA

CITY           SKY/WX    TMP DP  RH WIND       PRES   REMARKS
MONROE         LGT RAIN  73  69  87 VRB7      30.20S
TALLULAH       FAIR      78  70  76 S14G24    30.21F

$$



ASUS44 KLIX 211607
RWRLIX
NEW ORLEANS REGIONAL WEATHER ROUNDUP
NATIONAL WEATHER SERVICE NEW ORLEANS LA
1000 AM CST WED FEB 21 2018

NOTE: "FAIR" INDICATES FEW OR NO CLOUDS BELOW 12,000 FEET WITH NO
      SIGNIFICANT WEATHER AND/OR OBSTRUCTIONS TO VISIBILITY.
      SKY/WX - SKY CONDITION AND SIGNIFICANT WEATHER.
      TMP - AIR TEMPERATURE.     DP    - DEWPOINT TEMPERATURE.
      RH  - RELATIVE HUMIDITY.   PRES  - PRESSURE.
      HI  - HEAT INDEX.          WCI   - WIND CHILL INDEX.

*  THESE STATIONS ARE NOT NWS OR FAA STATIONS AND ARE NOT UNDER
   NWS QUALITY CONTROL.

LAZ038-040-048-061>063-065>067-069-211700-
SOUTHEAST LOUISIANA

CITY           SKY/WX    TMP DP  RH WIND       PRES   REMARKS
N.O. INTL ARPT PTSUNNY   80  73  79 SE17G24   30.24R
N.O. LAKEFRONT FAIR      79  71  76 SE18G25   30.25R
N.O. DOWNTOWN* PTSUNNY   78  71  79 S12       30.25S
RESERVE*       CLOUDY    80  71  72 S15       30.24S
SLIDELL        CLOUDY    78  70  76 SE15G23   30.25S
BATON ROUGE    PTSUNNY   79  68  69 SE17G28   30.20F
BOOTHVILLE     NOT AVBL
BELLE CHASSE   PTSUNNY   79  74  84 SE13      30.24
BOGALUSA*      CLOUDY    79  69  72 S10       30.27S
GALLIANO*      CLOUDY    79  70  74 SE14G21   30.24R
NEW ROADS*     CLOUDY    78  69  73 SE13G25   30.20S
GONZALES*      NOT AVBL
HAMMOND*       CLOUDY    77  70  78 S14G21    30.25S
HOUMA*         PTSUNNY   81  72  74 SE16G29   30.23R
PORT FOURCHON* SUNNY     77  73  88 SE13      30.24R HAZE

$$

MSZ070-080>082-211700-
SOUTHERN MISSISSIPPI

CITY           SKY/WX    TMP DP  RH WIND       PRES   REMARKS
MCCOMB         FAIR      77  67  71 SE10      30.24S
GULFPORT       CLOUDY    74  72  93 SE17      30.27R
BILOXI         CLOUDY    75  71  87 SE12G21   30.28R
PASCAGOULA     CLOUDY    76  69  79 SE15G23   30.29S
STENNIS ARPT*  PTSUNNY   77  72  83 SE10G17   30.27R

$$

COASTAL OBSERVATIONS
LAKE AND NEARSHORE STATIONS

STATION/POSITION TIME  SKY/WX   TEMP    WIND        PRES    WAVE
                                AIR SEA DIR/SP/G            HT/PER
                 (UTC)          (F)     (DEG/KT/KT) (MB)    (FT/S)
WAVELAND YACHT   1524            72 72  140/ 15/ 19 1025.1
GRAND ISLE       1524            73 72  140/  8/ 13 1024.0
SOUTHWEST PASS   1524            69 48  140/  7/  9 1024.9
NEW CANAL        1524            78 63  140/  5/ 13 1023.7
SHELL BEACH      1524            77 75  140/ 17/ 22 1024.3

OFFSHORE STATIONS

STATION/POSITION TIME  SKY/WX   TEMP    WIND        PRES    WAVE
                                AIR SEA DIR/SP/G            HT/PER
                 (UTC)          (F)     (DEG/KT/KT) (MB)    (FT/S)
64 S DAUPHIN ISL 1550               73  130/ 12/ 16 1025.9    6/ 8

$$



ASUS44 KLIX 211613
RWRLIX
NEW ORLEANS REGIONAL WEATHER ROUNDUP
NATIONAL WEATHER SERVICE NEW ORLEANS LA
1000 AM CST WED FEB 21 2018

NOTE: "FAIR" INDICATES FEW OR NO CLOUDS BELOW 12,000 FEET WITH NO
      SIGNIFICANT WEATHER AND/OR OBSTRUCTIONS TO VISIBILITY.
      SKY/WX - SKY CONDITION AND SIGNIFICANT WEATHER.
      TMP - AIR TEMPERATURE.     DP    - DEWPOINT TEMPERATURE.
      RH  - RELATIVE HUMIDITY.   PRES  - PRESSURE.
      HI  - HEAT INDEX.          WCI   - WIND CHILL INDEX.

*  THESE STATIONS ARE NOT NWS OR FAA STATIONS AND ARE NOT UNDER
   NWS QUALITY CONTROL.

LAZ038-040-048-061>063-065>067-069-211700-
SOUTHEAST LOUISIANA

CITY           SKY/WX    TMP DP  RH WIND       PRES   REMARKS
N.O. INTL ARPT PTSUNNY   80  73  79 SE17G24   30.24R
N.O. LAKEFRONT FAIR      79  71  76 SE18G25   30.25R
N.O. DOWNTOWN* PTSUNNY   78  71  79 S12       30.25S
RESERVE*       CLOUDY    80  71  72 S15       30.24S
SLIDELL        CLOUDY    78  70  76 SE15G23   30.25S
BATON ROUGE    PTSUNNY   79  68  69 SE17G28   30.20F
BOOTHVILLE     NOT AVBL
BELLE CHASSE   PTSUNNY   79  74  84 SE13      30.24
BOGALUSA*      CLOUDY    79  69  72 S10       30.27S
GALLIANO*      CLOUDY    79  70  74 SE14G21   30.24R
NEW ROADS*     CLOUDY    78  69  73 SE13G25   30.20S
GONZALES*      NOT AVBL
HAMMOND*       CLOUDY    77  70  78 S14G21    30.25S
HOUMA*         PTSUNNY   81  72  74 SE16G29   30.23R
PORT FOURCHON* SUNNY     77  73  88 SE13      30.24R HAZE

$$

MSZ070-080>082-211700-
SOUTHERN MISSISSIPPI

CITY           SKY/WX    TMP DP  RH WIND       PRES   REMARKS
MCCOMB         FAIR      77  67  71 SE10      30.24S
GULFPORT       CLOUDY    74  72  93 SE17      30.27R
BILOXI         CLOUDY    75  72  88 SE14G24   30.28R
PASCAGOULA     CLOUDY    76  69  79 SE15G23   30.29S
STENNIS ARPT*  PTSUNNY   77  72  83 SE10G17   30.27R

$$

COASTAL OBSERVATIONS
LAKE AND NEARSHORE STATIONS

STATION/POSITION TIME  SKY/WX   TEMP    WIND        PRES    WAVE
                                AIR SEA DIR/SP/G            HT/PER
                 (UTC)          (F)     (DEG/KT/KT) (MB)    (FT/S)
WAVELAND YACHT   1542            71 72  130/ 15/ 19 1025.1
GRAND ISLE       1542            74 72  140/  8/ 13 1024.2
SOUTHWEST PASS   1542            70 48  150/  7/  9 1024.9
NEW CANAL        1542            79 63  160/  9/ 16 1024.0
SHELL BEACH      1542            77 75  140/ 19/ 25 1024.3

OFFSHORE STATIONS

STATION/POSITION TIME  SKY/WX   TEMP    WIND        PRES    WAVE
                                AIR SEA DIR/SP/G            HT/PER
                 (UTC)          (F)     (DEG/KT/KT) (MB)    (FT/S)
64 S DAUPHIN ISL 1550               73  130/ 12/ 16 1025.9    6/ 8

$$





Office: LCH ASUS44 KLCH 211611 RWRLCH REGIONAL WEATHER ROUNDUP NATIONAL WEATHER SERVICE LAKE CHARLES LA 1000 AM CST WED FEB 21 2018 Note: "fair" indicates few or no clouds below 12,000 feet with no significant weather and/or obstructions to visibility. ACROSS SOUTHEAST TEXAS CITY SKY/WX TMP DP RH WIND PRES REMARKS BEAUMONT LGT RAIN 72 70 93 S16G26 30.11R BEAUMONT CITY CLOUDY 73 70 91 S13 30.12R ORANGE CLOUDY 73 72 98 S17G24 30.13S JASPER RAIN 67 67 97 CALM 30.13F $$ ACROSS CENTRAL LOUISIANA CITY SKY/WX TMP DP RH WIND PRES REMARKS LEESVILLE HVY RAIN 71 70 96 NW9 30.11R VSB 3/4 FULLERTON LGT RAIN 71 71 100 VRB5 30.08F FOG ALEXANDRIA INT LGT RAIN 74 69 85 SE17 30.12F ESLER FIELD CLOUDY 75 69 81 SE8 30.16F DERIDDER CLOUDY 72 71 95 S7 30.12S OAKDALE CLOUDY 75 69 82 SE12G20 30.14S OPELOUSAS CLOUDY 77 69 76 SE13G21 30.17S $$ ACROSS SOUTHWEST AND SOUTH CENTRAL LOUISIANA CITY SKY/WX TMP DP RH WIND PRES REMARKS SULPHUR CLOUDY 74 72 95 SE15G28 30.13F FOG LAKE CHARLES CLOUDY 75 72 90 S22G31 30.13R CHENNAULT INT CLOUDY 73 72 94 SE21G26 30.13R CAMERON PHI CLOUDY 68 68 100 SE17G23 30.14S FOG DEQUINCY CLOUDY 73 70 89 SE17G32 30.12 JENNINGS CLOUDY 74 71 91 SE18G26 30.15S LAFAYETTE CLOUDY 78 70 76 S15G29 30.18S NEW IBERIA LGT RAIN 78 69 73 SE26G33 30.19S ABBEVILLE CLOUDY 76 74 94 SE18G31 30.19R PATTERSON PTSUNNY 80 71 74 SE15G24 30.21S SALT POINT N/A 76 70 82 SE13 30.18S $$ SELECTED SITES ACROSS THE REGION CITY SKY/WX TMP DP RH WIND PRES REMARKS HOUSTON BUSH LGT RAIN 74 72 93 S12 30.08R HOUSTON HOBBY CLOUDY 74 73 97 S9G20 30.08R GALVESTON CLOUDY 74 72 93 SE18 30.09S FOG COLLEGE STAT LGT RAIN 47 45 93 N12 30.16R CONROE RAIN 52 52 100 NW10 30.13R FOG HUNTSVILLE HVY RAIN 47 46 97 MISG 30.15F VSB 1 LUFKIN RAIN 54 54 100 NW8 30.14R FOG SHREVEPORT LGT RAIN 58 57 97 NE22G29 30.20S FOG MONROE LGT RAIN 73 69 87 VRB7 30.20S NATCHEZ MS PTSUNNY 78 68 71 SE14 30.21S BATON ROUGE PTSUNNY 79 68 69 SE17G28 30.20F N.O. INTL ARPT PTSUNNY 80 73 79 SE17G24 30.24R SLIDELL CLOUDY 78 70 76 SE15G23 30.25S $$ MARINE REPORTS STATION/POSITION TIME SKY/WX TEMP WIND PRES VSBY AIR SEA DIR/SP/G (UTC) (F) (DEG/KT/KT) (MB) (MI) BUOY 30 S HIGH I 1450 65 60 160/ 8/ 8 1019.3 WVE H/P(F/S)= 4/ 6 SEA RIM ST PARK 1600 68 160/ 12/ 16 1020.1R PORT ARTHUR 1548 71 67 170/ 8/ 15 1019.9R SABINE PASS N 1542 67 68 140/ 17/ 20 1021.0S TEXAS POINT NOT AVBL CALCASIEU PASS 1542 68 67 170/ 13/ 18 1019.3R LK CHARLES BEACH 1542 74 67 1019.7R MARSH ISLAND 1500 71 N/A FRESH WATER LOCK 1542 72 73 120/ 12/ 18 1021.9R AMERADA PASS 1542 76 54 140/ 11/ 17 1022.9R $$